Showing default

GMS-T, 47346

Orbit data source: Space-Track

GMS-T, 47346 is a German payload satellite in LEO that was launched on Wed, 20 Jan 2021 UTC via an ELECTRON launch vehicle from the Rocket Lab Launch Complex (RLLC). Payload-class satellites include a variety of spacecraft equipped with specific instruments for various scientific and technological missions. These include communications satellites like Starlink; space stations such as the ISS; scientific satellites like the Hubble; Earth observation satellites from companies like Planet Labs, Umbra, and HawkEye 360; GPS; miniature CubeSats for education and research; and military/defense satellites.

Loading next visibility...
Identifier
47346, 2021-004A
Orbit
LEO
Country
Flag of DEDE / GER
Related business
Manufacturer
OHB
Mission
Operational Commercial Communications
Bus & Motor
KLA, Unknown motor
Mass
50 kg wet, ~45 kg dry
Launch date (UTC)
2021-01-20 (5 years ago)
Launch vehicle
ELECTRON
Launch site
Rocket Lab Launch Complex (RLLC)
Object type
Payload
Rocket body
Debris
Shape & HBR
Box + 1 Pan, 1.5 m
Radar Cross Section
0.900 m², Medium (>0.1 m² and < 1m²)

Expand to show TLE details & history
Last TLE update: 2 days ago

TLE from 2 days ago
0 GMS-T
1 47346U 21004A   26171.20326545 -.00000011  00000-0 -48850-4 0  9998
2 47346  90.1296 241.8667 0003935  61.4277 298.7250 13.16657488259990
Epoch: 2026-06-20T04:52Z
TLE epoch observation values (Epoch: 2026-06-20T04:52:42.134Z)
Latitude
-0.00008°
Longitude
-99.73012°
Altitude
1,198.987 km
Speed
7.255 km/s
True Right ascension
16h 07m 28s
True Declination
0° 00' 00"
Sunlit
Object was in full shadow at epoch
Visualization orbit readout
Latitude
Unknown
Longitude
Unknown
Altitude
Unknown
Speed
Unknown
Apparent Right ascension
Unknown
Apparent Declination
Unknown
Sunlit
N/A
Visualization observer readout
Local Sidereal Time
21:27:06
Azimuth
Unknown
Elevation
Unknown
Doppler factor
Unknown
Orbital elements
Apogee altitude
1,197.593 km
Perigee altitude
1,191.633 km
Semi-major axis
7,572.75 km
Eccentricity
0.00039
Inclination
90.1296°
RAAN
241.8667°
Arg. of periapsis
61.4277°
True anomaly
298.68545°
Mean anomaly
298.725°
Eccentric anomaly
298.70522°
Mean motion
3.29354 °/min
Orbital period
109.3 mins
BSTAR
-0.00004885
Loading maneuver chart data...
Computing Atmospheric mass density...
Loading historical data...
Loading historical data...
Loading historical data...
Loading historical data...
Loading historical data...
Loading historical data...
Loading historical data...
Other satellites on launch #4 in the year 2021 (2021-01-20 UTC)

Documentation

Showing up to 5 results
|